Content
SEND FEEDBACK

Daily
Averages
Monthly
Summary
United States of America

KIOWA - SOUTH, COLORADO


Home > North America > United States > Colorado
Elevation: 6400 feet     Latitude: 39 17N     Longitude: 104 28W

WEATHER
 
SELECT A DAY
Number of Records: 300,132;   Date Range: 8/29/01 - 8/30/14
 
SHARE

PRINT THIS DATA

[ ← Previous Day ]
WEATHER ALMANAC - JANUARY 3, 2013
[ Next Day → ]
[ °C ]   °F
Weather ElementAverageHighLow
Temperature15.2 °F28.4 °F (11:14 am)1.4 °F (6:54 am)
Dewpoint-4.2 °F1.4 °F (10:14 am)-11.2 °F (11:53 pm)
Humidity44.8 %67 % (12:34 am)25 % (12:14 pm)
Barometer30.17 in30.21 in (2:14 am)30.13 in (1:34 pm)
Wind Speed6.1 mph9.2 mph (12:34 am)
Weather ElementAverage
Visibility10 mi
Wind DirectionSW (227 °)

Weather ElementTotal
Precipitation---
Heating Degree Days50.1 (Base 65)
Averaged from 70 records on January 3, 2013
WEATHER CONDITIONS BREAKOUT
WIND DIRECTION BREAKOUT
WEATHER BY HOUR - JANUARY 3, 2013
[ °C ]   °F
Local TimeTemperatureDewpointHumidityBarometerVisibilityWind DirectionWind SpeedGust SpeedPrecipitationEventsConditions
12:34 AM8.6 °F-0.4 °F67 %30.19 in10.0 miSW (230°)9.2 mphScattered Clouds
12:54 AM10.4 °F-0.4 °F62 %30.19 in10.0 miSW (230°)9.2 mphMostly Cloudy
1:13 AM10.4 °F-0.4 °F62 %30.19 in10.0 miSW (230°)8.1 mphOvercast
1:34 AM10.4 °F-0.4 °F62 %30.19 in10.0 miWSW (240°)9.2 mphMostly Cloudy
1:54 AM10.4 °F-0.4 °F62 %30.20 in10.0 miWSW (240°)6.9 mphMostly Cloudy
2:14 AM8.6 °F-0.4 °F67 %30.21 in10.0 miWSW (250°)6.9 mphMostly Cloudy
2:34 AM6.8 °F-2.2 °F67 %30.21 in10.0 miWSW (250°)8.1 mphScattered Clouds
2:54 AM8.6 °F-0.4 °F67 %30.21 in10.0 miWSW (240°)6.9 mphScattered Clouds
3:14 AM8.6 °F-2.2 °F62 %30.21 in10.0 miWSW (240°)6.9 mphClear
3:34 AM8.6 °F-4.0 °F57 %30.20 in10.0 miWSW (240°)8.1 mphClear
3:54 AM8.6 °F-4.0 °F57 %30.20 in10.0 miWSW (240°)6.9 mphClear
4:14 AM6.8 °F-4.0 °F61 %30.20 in10.0 miWSW (240°)6.9 mphClear
4:34 AM6.8 °F-4.0 °F61 %30.19 in10.0 miWSW (240°)8.1 mphClear
4:54 AM8.6 °F-4.0 °F57 %30.19 in10.0 miWSW (240°)8.1 mphClear
5:14 AM8.6 °F-4.0 °F57 %30.19 in10.0 miWSW (240°)6.9 mphClear
5:34 AM3.2 °F-5.8 °F66 %30.19 in10.0 miWSW (240°)5.8 mphClear
5:54 AM3.2 °F-5.8 °F66 %30.19 in10.0 miWSW (250°)6.9 mphClear
6:14 AM8.6 °F-4.0 °F57 %30.19 in10.0 miWSW (250°)5.8 mphClear
6:34 AM3.2 °F-7.6 °F61 %30.19 in10.0 miWSW (240°)6.9 mphClear
6:54 AM1.4 °F-7.6 °F66 %30.18 in10.0 miSW (230°)8.1 mphClear
7:14 AM1.4 °F-7.6 °F66 %30.18 in10.0 miSW (220°)9.2 mphClear
7:34 AM3.2 °F-5.8 °F66 %30.18 in10.0 miSW (230°)8.1 mphClear
7:54 AM3.2 °F-7.6 °F61 %30.18 in10.0 miSW (220°)9.2 mphClear
8:34 AM12.2 °F-5.8 °F45 %30.20 in10.0 miWSW (240°)9.2 mphClear
8:53 AM14.0 °F-4.0 °F45 %30.20 in10.0 miWSW (240°)8.1 mphClear
9:14 AM15.8 °F-2.2 °F45 %30.20 in10.0 miWSW (240°)5.8 mphClear
9:34 AM19.4 °F-2.2 °F39 %30.21 in10.0 miSW (230°)5.8 mphClear
9:54 AM21.2 °F-0.4 °F39 %30.21 in10.0 miWSW (240°)4.6 mphClear
10:14 AM23.0 °F1.4 °F39 %30.21 in10.0 miWest (270°)3.5 mphClear
10:34 AM26.6 °F-0.4 °F31 %30.21 in10.0 miWest (280°)4.6 mphClear
10:54 AM26.6 °F-0.4 °F31 %30.20 in10.0 miWNW (290°)3.5 mphClear
11:14 AM28.4 °F-0.4 °F29 %30.19 in10.0 miWest (280°)5.8 mphClear
11:34 AM28.4 °F-0.4 °F29 %30.19 in10.0 miWNW (290°)5.8 mphClear
11:54 AM28.4 °F-2.2 °F27 %30.18 in10.0 miNW (320°)4.6 mphClear
12:14 PM28.4 °F-4.0 °F25 %30.17 in10.0 miNW (320°)6.9 mphClear
12:34 PM28.4 °F-4.0 °F25 %30.16 in10.0 miNW (320°)6.9 mphClear
12:54 PM28.4 °F-2.2 °F27 %30.15 in10.0 miNW (320°)6.9 mphClear
1:14 PM28.4 °F-0.4 °F29 %30.14 in10.0 miNW (310°)8.1 mphClear
1:34 PM28.4 °F-0.4 °F29 %30.13 in10.0 miWNW (290°)8.1 mphClear
1:54 PM28.4 °F1.4 °F31 %30.13 in10.0 miWest (270°)5.8 mphClear
2:14 PM28.4 °F-0.4 °F29 %30.13 in10.0 miWest (280°)4.6 mphClear
2:34 PM28.4 °F1.4 °F31 %30.13 in10.0 miWNW (290°)4.6 mphClear
2:54 PM28.4 °F-0.4 °F29 %30.13 in10.0 miNNW (340°)4.6 mphClear
3:14 PM28.4 °F-2.2 °F27 %30.13 in10.0 miCalmClear
3:34 PM28.4 °F-4.0 °F25 %30.13 in10.0 miCalmClear
3:54 PM26.6 °F-2.2 °F29 %30.13 in10.0 miCalmClear
4:14 PM24.8 °F-5.8 °F26 %30.14 in10.0 miNorth (350°)4.6 mphClear
4:34 PM23.0 °F-5.8 °F28 %30.15 in10.0 miCalmClear
4:54 PM14.0 °F-4.0 °F45 %30.15 in7.0 miCalmClear
5:14 PM14.0 °F-5.8 °F41 %30.16 in10.0 miCalmClear
5:33 PM10.4 °F-5.8 °F48 %30.16 in10.0 miCalmClear
5:54 PM8.6 °F-7.6 °F48 %30.17 in10.0 miCalmClear
6:14 PM10.4 °F-5.8 °F48 %30.17 in10.0 miSW (220°)5.8 mphClear
6:34 PM10.4 °F-5.8 °F48 %30.17 in10.0 miSW (230°)8.1 mphClear
6:54 PM12.2 °F-5.8 °F45 %30.17 in10.0 miWSW (240°)5.8 mphClear
7:14 PM12.2 °F-5.8 °F45 %30.17 in10.0 miWSW (240°)5.8 mphClear
7:34 PM10.4 °F-5.8 °F48 %30.17 in10.0 miWSW (240°)6.9 mphClear
7:54 PM12.2 °F-7.6 °F41 %30.17 in10.0 miWSW (240°)5.8 mphClear
8:13 PM10.4 °F-7.6 °F44 %30.16 in10.0 miSW (230°)6.9 mphClear
8:34 PM10.4 °F-7.6 °F44 %30.17 in10.0 miSW (220°)9.2 mphClear
8:54 PM10.4 °F-7.6 °F44 %30.16 in10.0 miSW (230°)9.2 mphClear
9:14 PM12.2 °F-7.6 °F41 %30.16 in10.0 miWSW (240°)6.9 mphClear
9:34 PM14.0 °F-7.6 °F38 %30.16 in10.0 miWSW (240°)8.1 mphClear
9:54 PM14.0 °F-9.4 °F35 %30.16 in10.0 miWSW (250°)8.1 mphClear
10:14 PM17.6 °F-9.4 °F30 %30.16 in10.0 miWSW (250°)8.1 mphClear
10:33 PM14.0 °F-9.4 °F35 %30.16 in10.0 miWSW (250°)8.1 mphClear
10:54 PM12.2 °F-7.6 °F41 %30.16 in10.0 miWest (270°)6.9 mphClear
11:14 PM14.0 °F-9.4 °F35 %30.16 in10.0 miWest (270°)6.9 mphClear
11:33 PM14.0 °F-9.4 °F35 %30.16 in10.0 miWest (270°)6.9 mphClear
11:53 PM14.0 °F-11.2 °F32 %30.16 in10.0 miWest (280°)6.9 mphClear
Hourly data recorded from KMNH, located miles away from Kiowa - South, Colorado







STORIES FROM OUR PARTNERS